SWARM C

Last updated on Sun Apr 12 2026 00:03:41 GMT+0000 (Coordinated Universal Time)

1 39453U 13067C 26101.47343435 .00010709 00000+0 19322-3 0 9990 2 39453 87.3292 79.5777 0003655 95.0497 265.1181 15.49586020695871
UTC large
Height (km)
Speed (km/s)
/
Latitude / Longitude
Inclination (degrees)
Orbital Period (minutes)
Azimuth
Elevation
Range (km)
Doppler Factor

Next 0 passes for location: London (51.5072 / 0.1276)

Sorry there are no passes over London.
SWARM C